Time,TemperatureF,DewpointF,PressureIn,WindDirection,WindDirectionDegrees,WindSpeedMPH,WindSpeedGustMPH,Humidity,HourlyPrecipIn,Conditions,Clouds,dailyrainin,SoftwareType,DateUTC
2013-10-10 00:00:00,58.5,56.5,29.90,North,1,12.0,14.0,93,0.00,,,0.01,Wunderground v.1.15,2013-10-10 04:00:00,
2013-10-10 00:05:00,58.4,56.4,29.90,North,356,14.0,14.0,93,0.00,,,0.00,Wunderground v.1.15,2013-10-10 04:05:00,
2013-10-10 00:10:00,58.4,56.4,29.90,NNW,338,13.0,13.0,93,0.00,,,0.00,Wunderground v.1.15,2013-10-10 04:10:00,
2013-10-10 00:15:00,58.3,56.3,29.90,North,352,13.0,13.0,93,0.00,,,0.00,Wunderground v.1.15,2013-10-10 04:15:00,
2013-10-10 00:25:00,58.3,56.3,29.90,NNE,15,12.0,14.0,93,0.00,,,0.00,Wunderground v.1.15,2013-10-10 04:25:00,
2013-10-10 00:30:00,58.3,56.3,29.90,NNW,340,13.0,13.0,93,0.00,,,0.00,Wunderground v.1.15,2013-10-10 04:30:00,
2013-10-10 00:35:00,58.3,56.3,29.90,NNW,330,12.0,13.0,93,0.00,,,0.00,Wunderground v.1.15,2013-10-10 04:35:00,
2013-10-10 00:40:00,58.2,56.2,29.89,NW,326,12.0,12.0,93,0.00,,,0.00,Wunderground v.1.15,2013-10-10 04:40:00,
2013-10-10 00:45:00,58.1,56.1,29.89,North,6,14.0,18.0,93,0.00,,,0.00,Wunderground v.1.15,2013-10-10 04:45:00,
2013-10-10 00:55:00,58.0,56.3,29.89,North,352,14.0,15.0,94,0.00,,,0.00,Wunderground v.1.15,2013-10-10 04:55:00,
2013-10-10 01:00:00,58.0,56.3,29.89,NNW,342,13.0,13.0,94,0.00,,,0.00,Wunderground v.1.15,2013-10-10 05:00:00,
2013-10-10 01:10:00,58.0,56.3,29.89,West,281,12.0,12.0,94,0.00,,,0.00,Wunderground v.1.15,2013-10-10 05:10:00,
2013-10-10 01:20:00,57.9,56.2,29.89,NW,318,11.0,14.0,94,0.00,,,0.00,Wunderground v.1.15,2013-10-10 05:20:00,
2013-10-10 01:25:00,57.9,56.2,29.89,NNE,22,10.0,14.0,94,0.00,,,0.00,Wunderground v.1.15,2013-10-10 05:25:00,
2013-10-10 01:35:00,57.9,56.2,29.89,NNE,23,10.0,15.0,94,0.00,,,0.00,Wunderground v.1.15,2013-10-10 05:35:00,
2013-10-10 01:45:00,57.8,56.1,29.89,NNE,22,11.0,12.0,94,0.00,,,0.00,Wunderground v.1.15,2013-10-10 05:45:00,
2013-10-10 01:55:00,57.8,56.1,29.89,NW,326,10.0,11.0,94,0.00,,,0.00,Wunderground v.1.15,2013-10-10 05:55:00,
2013-10-10 02:00:00,57.8,56.1,29.89,North,354,10.0,11.0,94,0.00,,,0.00,Wunderground v.1.15,2013-10-10 06:00:00,
2013-10-10 02:10:00,57.7,56.0,29.89,NW,322,11.0,11.0,94,0.00,,,0.00,Wunderground v.1.15,2013-10-10 06:10:00,
2013-10-10 02:20:00,57.6,55.9,29.89,North,360,11.0,14.0,94,0.00,,,0.00,Wunderground v.1.15,2013-10-10 06:20:00,
2013-10-10 02:30:00,57.6,55.9,29.89,North,359,11.0,15.0,94,0.00,,,0.00,Wunderground v.1.15,2013-10-10 06:30:00,
2013-10-10 02:35:00,57.5,55.8,29.89,North,351,12.0,18.0,94,0.00,,,0.00,Wunderground v.1.15,2013-10-10 06:35:00,
2013-10-10 02:40:00,57.5,55.8,29.88,North,4,12.0,13.0,94,0.00,,,0.00,Wunderground v.1.15,2013-10-10 06:40:00,
2013-10-10 02:50:00,57.5,55.8,29.88,NNW,344,12.0,16.0,94,0.00,,,0.00,Wunderground v.1.15,2013-10-10 06:50:00,
2013-10-10 02:55:00,57.5,55.8,29.88,North,356,12.0,16.0,94,0.00,,,0.00,Wunderground v.1.15,2013-10-10 06:55:00,
2013-10-10 03:00:00,57.4,55.7,29.88,NNE,26,12.0,12.0,94,0.00,,,0.00,Wunderground v.1.15,2013-10-10 07:00:00,
2013-10-10 03:10:00,57.4,55.7,29.87,NNW,328,11.0,11.0,94,0.00,,,0.00,Wunderground v.1.15,2013-10-10 07:10:00,
2013-10-10 03:15:00,57.3,55.6,29.87,North,5,11.0,11.0,94,0.00,,,0.00,Wunderground v.1.15,2013-10-10 07:15:00,
2013-10-10 03:20:00,57.4,55.7,29.87,NNW,330,11.0,13.0,94,0.00,,,0.00,Wunderground v.1.15,2013-10-10 07:20:00,
2013-10-10 03:30:00,57.4,55.7,29.87,NNW,339,11.0,12.0,94,0.00,,,0.00,Wunderground v.1.15,2013-10-10 07:30:00,
2013-10-10 03:35:00,57.3,55.6,29.87,NE,34,11.0,13.0,94,0.00,,,0.00,Wunderground v.1.15,2013-10-10 07:35:00,
2013-10-10 03:40:00,57.2,55.5,29.87,North,354,12.0,12.0,94,0.00,,,0.00,Wunderground v.1.15,2013-10-10 07:40:00,
2013-10-10 03:45:00,57.2,55.5,29.87,NNW,335,12.0,12.0,94,0.00,,,0.00,Wunderground v.1.15,2013-10-10 07:45:00,
2013-10-10 03:50:00,57.2,55.5,29.87,North,350,12.0,12.0,94,0.00,,,0.00,Wunderground v.1.15,2013-10-10 07:50:00,
2013-10-10 03:55:00,57.2,55.5,29.86,North,360,12.0,14.0,94,0.00,,,0.00,Wunderground v.1.15,2013-10-10 07:55:00,
2013-10-10 04:00:00,57.2,55.5,29.86,NNW,348,12.0,12.0,94,0.00,,,0.00,Wunderground v.1.15,2013-10-10 08:00:00,
2013-10-10 04:10:00,57.2,55.5,29.86,North,5,12.0,12.0,94,0.00,,,0.00,Wunderground v.1.15,2013-10-10 08:10:00,
2013-10-10 04:15:00,57.2,55.5,29.86,NNW,345,12.0,12.0,94,0.00,,,0.00,Wunderground v.1.15,2013-10-10 08:15:00,
2013-10-10 04:20:00,57.2,55.5,29.86,NW,305,12.0,12.0,94,0.00,,,0.00,Wunderground v.1.15,2013-10-10 08:20:00,
2013-10-10 04:25:00,57.1,55.7,29.87,NNE,27,12.0,12.0,95,0.00,,,0.00,Wunderground v.1.15,2013-10-10 08:25:00,
2013-10-10 04:30:00,57.1,55.7,29.86,North,11,12.0,13.0,95,0.00,,,0.00,Wunderground v.1.15,2013-10-10 08:30:00,
2013-10-10 04:35:00,57.1,55.7,29.86,NE,36,12.0,16.0,95,0.00,,,0.00,Wunderground v.1.15,2013-10-10 08:35:00,
2013-10-10 04:40:00,57.1,55.7,29.87,NNE,18,12.0,14.0,95,0.00,,,0.00,Wunderground v.1.15,2013-10-10 08:40:00,
2013-10-10 04:45:00,57.2,55.8,29.87,NNW,343,12.0,14.0,95,0.00,,,0.00,Wunderground v.1.15,2013-10-10 08:45:00,
2013-10-10 04:50:00,57.2,55.8,29.87,NNE,16,11.0,11.0,95,0.00,,,0.00,Wunderground v.1.15,2013-10-10 08:50:00,
2013-10-10 04:55:00,57.2,55.8,29.87,North,11,11.0,11.0,95,0.00,,,0.00,Wunderground v.1.15,2013-10-10 08:55:00,
2013-10-10 05:00:00,57.2,55.8,29.87,NNW,337,11.0,14.0,95,0.00,,,0.00,Wunderground v.1.15,2013-10-10 09:00:00,
2013-10-10 05:10:00,57.2,55.8,29.87,NNE,27,12.0,12.0,95,0.00,,,0.00,Wunderground v.1.15,2013-10-10 09:10:00,
2013-10-10 05:15:00,57.2,55.8,29.87,NNE,16,12.0,12.0,95,0.00,,,0.00,Wunderground v.1.15,2013-10-10 09:15:00,
2013-10-10 05:20:00,57.2,55.8,29.87,North,349,12.0,13.0,95,0.00,,,0.00,Wunderground v.1.15,2013-10-10 09:20:00,
2013-10-10 05:25:00,57.2,55.8,29.87,NW,325,12.0,13.0,95,0.00,,,0.00,Wunderground v.1.15,2013-10-10 09:25:00,
2013-10-10 05:30:00,57.2,55.8,29.87,NNW,347,12.0,19.0,95,0.00,,,0.00,Wunderground v.1.15,2013-10-10 09:30:00,
2013-10-10 05:35:00,57.1,55.7,29.88,North,350,11.0,19.0,95,0.00,,,0.00,Wunderground v.1.15,2013-10-10 09:35:00,
2013-10-10 05:40:00,57.1,55.7,29.88,NNW,333,11.0,11.0,95,0.00,,,0.00,Wunderground v.1.15,2013-10-10 09:40:00,
2013-10-10 05:45:00,57.1,55.7,29.88,NNW,335,11.0,11.0,95,0.00,,,0.00,Wunderground v.1.15,2013-10-10 09:45:00,
2013-10-10 05:50:00,57.1,55.7,29.88,NNW,335,11.0,11.0,95,0.00,,,0.00,Wunderground v.1.15,2013-10-10 09:50:00,
2013-10-10 05:55:00,57.1,55.7,29.88,North,6,11.0,11.0,95,0.00,,,0.00,Wunderground v.1.15,2013-10-10 09:55:00,
2013-10-10 06:00:00,57.0,55.6,29.88,NW,321,11.0,11.0,95,0.00,,,0.00,Wunderground v.1.15,2013-10-10 10:00:00,
2013-10-10 06:10:00,56.9,55.5,29.88,NW,325,12.0,12.0,95,0.00,,,0.00,Wunderground v.1.15,2013-10-10 10:10:00,
2013-10-10 06:20:00,56.9,55.5,29.88,NNW,329,12.0,13.0,95,0.00,,,0.00,Wunderground v.1.15,2013-10-10 10:20:00,
2013-10-10 06:25:00,56.8,55.4,29.88,NNW,347,11.0,13.0,95,0.00,,,0.00,Wunderground v.1.15,2013-10-10 10:25:00,
2013-10-10 06:35:00,56.8,55.4,29.88,NW,323,13.0,13.0,95,0.00,,,0.00,Wunderground v.1.15,2013-10-10 10:35:00,
2013-10-10 06:40:00,56.8,55.4,29.88,NE,43,13.0,13.0,95,0.00,,,0.00,Wunderground v.1.15,2013-10-10 10:40:00,
2013-10-10 06:50:00,56.8,55.4,29.89,North,352,12.0,12.0,95,0.00,,,0.00,Wunderground v.1.15,2013-10-10 10:50:00,
2013-10-10 06:55:00,56.8,55.4,29.88,NNW,335,12.0,12.0,95,0.00,,,0.00,Wunderground v.1.15,2013-10-10 10:55:00,
2013-10-10 07:00:00,56.8,55.4,29.88,North,352,12.0,16.0,95,0.00,,,0.00,Wunderground v.1.15,2013-10-10 11:00:00,
2013-10-10 07:10:00,56.8,55.4,29.88,NNW,328,13.0,13.0,95,0.00,,,0.00,Wunderground v.1.15,2013-10-10 11:10:00,
2013-10-10 07:20:00,56.7,55.3,29.88,NNW,338,13.0,13.0,95,0.00,,,0.00,Wunderground v.1.15,2013-10-10 11:20:00,
2013-10-10 07:25:00,56.8,55.4,29.88,NE,36,14.0,14.0,95,0.00,,,0.00,Wunderground v.1.15,2013-10-10 11:25:00,
2013-10-10 07:35:00,56.7,55.3,29.88,North,356,13.0,16.0,95,0.00,,,0.00,Wunderground v.1.15,2013-10-10 11:35:00,
2013-10-10 07:45:00,56.7,55.3,29.89,NNE,12,12.0,16.0,95,0.00,,,0.00,Wunderground v.1.15,2013-10-10 11:45:00,
2013-10-10 07:55:00,56.8,55.4,29.89,NNW,329,12.0,12.0,95,0.00,,,0.00,Wunderground v.1.15,2013-10-10 11:55:00,
2013-10-10 08:00:00,56.8,55.4,29.89,NNE,13,11.0,13.0,95,0.00,,,0.00,Wunderground v.1.15,2013-10-10 12:00:00,
2013-10-10 08:10:00,56.8,55.4,29.89,North,354,13.0,13.0,95,0.00,,,0.00,Wunderground v.1.15,2013-10-10 12:10:00,
2013-10-10 08:15:00,56.8,55.4,29.90,NNW,333,12.0,13.0,95,0.00,,,0.00,Wunderground v.1.15,2013-10-10 12:15:00,
2013-10-10 08:20:00,56.8,55.4,29.90,North,356,12.0,18.0,95,0.00,,,0.00,Wunderground v.1.15,2013-10-10 12:20:00,
2013-10-10 08:30:00,56.8,55.4,29.90,North,354,12.0,13.0,95,0.00,,,0.00,Wunderground v.1.15,2013-10-10 12:30:00,
2013-10-10 08:35:00,56.9,55.5,29.90,North,1,12.0,16.0,95,0.00,,,0.00,Wunderground v.1.15,2013-10-10 12:35:00,
2013-10-10 08:45:00,57.0,55.6,29.90,NW,326,11.0,12.0,95,0.00,,,0.00,Wunderground v.1.15,2013-10-10 12:45:00,
2013-10-10 08:50:00,57.1,55.7,29.90,NNW,333,11.0,15.0,95,0.00,,,0.00,Wunderground v.1.15,2013-10-10 12:50:00,
2013-10-10 08:55:00,57.1,55.7,29.90,North,354,12.0,15.0,95,0.00,,,0.00,Wunderground v.1.15,2013-10-10 12:55:00,
2013-10-10 09:00:00,57.1,55.7,29.91,NNW,327,12.0,12.0,95,0.00,,,0.00,Wunderground v.1.15,2013-10-10 13:00:00,
2013-10-10 09:10:00,57.4,56.0,29.91,North,354,10.0,10.0,95,0.00,,,0.00,Wunderground v.1.15,2013-10-10 13:10:00,
2013-10-10 09:15:00,57.4,56.0,29.92,NW,316,10.0,13.0,95,0.00,,,0.00,Wunderground v.1.15,2013-10-10 13:15:00,
2013-10-10 09:20:00,57.4,56.0,29.92,NNE,15,11.0,12.0,95,0.00,,,0.00,Wunderground v.1.15,2013-10-10 13:20:00,
2013-10-10 09:25:00,57.4,56.0,29.92,NNW,335,11.0,12.0,95,0.00,,,0.00,Wunderground v.1.15,2013-10-10 13:25:00,
2013-10-10 09:30:00,57.4,56.0,29.92,North,356,11.0,14.0,95,0.00,,,0.00,Wunderground v.1.15,2013-10-10 13:30:00,
2013-10-10 09:35:00,57.5,56.1,29.92,NNW,340,11.0,14.0,95,0.00,,,0.00,Wunderground v.1.15,2013-10-10 13:35:00,
2013-10-10 09:45:00,57.3,55.9,29.92,NNW,335,12.0,14.0,95,0.00,,,0.00,Wunderground v.1.15,2013-10-10 13:45:00,
2013-10-10 09:50:00,57.4,56.0,29.92,NNW,330,12.0,12.0,95,0.00,,,0.00,Wunderground v.1.15,2013-10-10 13:50:00,
2013-10-10 09:55:00,57.4,56.0,29.92,North,356,11.0,13.0,95,0.00,,,0.00,Wunderground v.1.15,2013-10-10 13:55:00,
2013-10-10 10:00:00,57.5,56.1,29.92,NNW,338,11.0,11.0,95,0.00,,,0.00,Wunderground v.1.15,2013-10-10 14:00:00,
2013-10-10 10:10:00,57.6,56.2,29.92,NNW,345,10.0,10.0,95,0.00,,,0.00,Wunderground v.1.15,2013-10-10 14:10:00,
2013-10-10 10:20:00,57.7,56.3,29.92,NNW,327,12.0,12.0,95,0.00,,,0.00,Wunderground v.1.15,2013-10-10 14:20:00,
2013-10-10 10:25:00,57.9,56.5,29.92,NW,313,12.0,12.0,95,0.00,,,0.00,Wunderground v.1.15,2013-10-10 14:25:00,
2013-10-10 10:30:00,57.9,56.5,29.91,North,11,11.0,13.0,95,0.00,,,0.00,Wunderground v.1.15,2013-10-10 14:30:00,
2013-10-10 10:35:00,58.0,56.6,29.91,NNE,26,12.0,13.0,95,0.00,,,0.00,Wunderground v.1.15,2013-10-10 14:35:00,
2013-10-10 10:40:00,58.1,56.7,29.91,North,4,12.0,12.0,95,0.00,,,0.00,Wunderground v.1.15,2013-10-10 14:40:00,
2013-10-10 10:45:00,58.3,56.9,29.91,NNE,13,11.0,12.0,95,0.00,,,0.00,Wunderground v.1.15,2013-10-10 14:45:00,
2013-10-10 10:50:00,58.2,56.8,29.91,NNW,335,12.0,12.0,95,0.00,,,0.00,Wunderground v.1.15,2013-10-10 14:50:00,
2013-10-10 10:55:00,58.3,56.9,29.91,North,5,11.0,12.0,95,0.00,,,0.00,Wunderground v.1.15,2013-10-10 14:55:00,
2013-10-10 11:00:00,58.4,57.0,29.91,NNW,341,12.0,12.0,95,0.00,,,0.00,Wunderground v.1.15,2013-10-10 15:00:00,
2013-10-10 11:10:00,58.5,57.1,29.91,NNW,345,11.0,11.0,95,0.00,,,0.00,Wunderground v.1.15,2013-10-10 15:10:00,
2013-10-10 11:20:00,58.6,57.2,29.91,NNW,332,10.0,11.0,95,0.00,,,0.00,Wunderground v.1.15,2013-10-10 15:20:00,
2013-10-10 11:25:00,58.6,57.2,29.92,North,358,10.0,12.0,95,0.00,,,0.00,Wunderground v.1.15,2013-10-10 15:25:00,
2013-10-10 11:30:00,58.5,56.8,29.92,NNW,332,12.0,12.0,94,0.00,,,0.00,Wunderground v.1.15,2013-10-10 15:30:00,
2013-10-10 11:40:00,58.8,57.1,29.92,NNW,331,10.0,13.0,94,0.00,,,0.00,Wunderground v.1.15,2013-10-10 15:40:00,
2013-10-10 11:45:00,58.8,57.1,29.92,North,358,10.0,13.0,94,0.00,,,0.00,Wunderground v.1.15,2013-10-10 15:45:00,
2013-10-10 11:50:00,58.9,57.2,29.92,NNW,342,12.0,12.0,94,0.00,,,0.00,Wunderground v.1.15,2013-10-10 15:50:00,
2013-10-10 11:55:00,59.1,57.4,29.91,North,351,11.0,12.0,94,0.00,,,0.00,Wunderground v.1.15,2013-10-10 15:55:00,
2013-10-10 12:00:00,59.4,57.7,29.91,NNW,347,9.0,9.0,94,0.00,,,0.00,Wunderground v.1.15,2013-10-10 16:00:00,
2013-10-10 12:10:00,59.5,57.8,29.91,North,8,9.0,9.0,94,0.00,,,0.00,Wunderground v.1.15,2013-10-10 16:10:00,
2013-10-10 12:15:00,59.6,57.9,29.92,NNW,338,10.0,13.0,94,0.00,,,0.00,Wunderground v.1.15,2013-10-10 16:15:00,
2013-10-10 12:25:00,59.7,58.0,29.92,North,350,11.0,17.0,94,0.00,,,0.00,Wunderground v.1.15,2013-10-10 16:25:00,
2013-10-10 12:30:00,59.8,58.1,29.92,NNW,342,10.0,10.0,94,0.00,,,0.00,Wunderground v.1.15,2013-10-10 16:30:00,
2013-10-10 12:35:00,59.9,58.2,29.92,NW,319,10.0,10.0,94,0.00,,,0.00,Wunderground v.1.15,2013-10-10 16:35:00,
2013-10-10 12:40:00,60.0,58.0,29.92,North,350,9.0,14.0,93,0.00,,,0.00,Wunderground v.1.15,2013-10-10 16:40:00,
2013-10-10 12:45:00,60.0,58.0,29.92,NNW,342,9.0,14.0,93,0.00,,,0.00,Wunderground v.1.15,2013-10-10 16:45:00,
2013-10-10 12:55:00,59.9,57.9,29.92,NNW,335,8.0,10.0,93,0.00,,,0.00,Wunderground v.1.15,2013-10-10 16:55:00,
2013-10-10 13:00:00,59.9,57.9,29.92,NW,320,9.0,14.0,93,0.00,,,0.00,Wunderground v.1.15,2013-10-10 17:00:00,
2013-10-10 13:10:00,59.8,57.8,29.91,NNW,344,10.0,10.0,93,0.00,,,0.00,Wunderground v.1.15,2013-10-10 17:10:00,
2013-10-10 13:15:00,60.0,58.0,29.91,NNW,343,9.0,10.0,93,0.00,,,0.00,Wunderground v.1.15,2013-10-10 17:15:00,
2013-10-10 13:25:00,59.9,57.9,29.91,North,352,9.0,11.0,93,0.00,,,0.00,Wunderground v.1.15,2013-10-10 17:25:00,
2013-10-10 13:30:00,60.0,58.0,29.91,NW,307,8.0,9.0,93,0.00,,,0.00,Wunderground v.1.15,2013-10-10 17:30:00,
2013-10-10 13:35:00,60.0,58.0,29.91,North,356,7.0,9.0,93,0.00,,,0.00,Wunderground v.1.15,2013-10-10 17:35:00,
2013-10-10 13:40:00,60.1,58.1,29.91,NNW,331,8.0,18.0,93,0.00,,,0.00,Wunderground v.1.15,2013-10-10 17:40:00,
2013-10-10 13:45:00,60.2,58.2,29.91,NNW,345,9.0,18.0,93,0.00,,,0.00,Wunderground v.1.15,2013-10-10 17:45:00,
2013-10-10 13:50:00,60.3,58.3,29.90,North,4,9.0,12.0,93,0.00,,,0.00,Wunderground v.1.15,2013-10-10 17:50:00,
2013-10-10 14:00:00,60.3,58.3,29.90,North,350,9.0,9.0,93,0.00,,,0.00,Wunderground v.1.15,2013-10-10 18:00:00,
2013-10-10 14:10:00,60.4,58.1,29.89,NW,309,9.0,9.0,92,0.00,,,0.00,Wunderground v.1.15,2013-10-10 18:10:00,
2013-10-10 14:20:00,60.3,57.7,29.89,North,356,10.0,13.0,91,0.00,,,0.00,Wunderground v.1.15,2013-10-10 18:20:00,
2013-10-10 14:30:00,60.3,57.7,29.89,NW,311,9.0,9.0,91,0.00,,,0.00,Wunderground v.1.15,2013-10-10 18:30:00,
2013-10-10 14:35:00,60.1,57.5,29.89,North,356,10.0,10.0,91,0.00,,,0.00,Wunderground v.1.15,2013-10-10 18:35:00,
2013-10-10 14:40:00,60.2,57.6,29.89,North,350,10.0,10.0,91,0.00,,,0.00,Wunderground v.1.15,2013-10-10 18:40:00,
2013-10-10 14:45:00,60.3,57.7,29.89,North,351,9.0,10.0,91,0.00,,,0.00,Wunderground v.1.15,2013-10-10 18:45:00,
2013-10-10 14:50:00,60.3,57.7,29.88,North,351,10.0,10.0,91,0.00,,,0.00,Wunderground v.1.15,2013-10-10 18:50:00,
2013-10-10 15:00:00,60.3,57.7,29.88,NNE,20,11.0,11.0,91,0.00,,,0.00,Wunderground v.1.15,2013-10-10 19:00:00,
2013-10-10 15:10:00,60.6,57.7,29.88,NNW,345,11.0,11.0,90,0.00,,,0.00,Wunderground v.1.15,2013-10-10 19:10:00,
2013-10-10 15:15:00,60.7,57.7,29.88,NNW,335,11.0,11.0,90,0.00,,,0.00,Wunderground v.1.15,2013-10-10 19:15:00,
2013-10-10 15:20:00,60.8,57.8,29.88,NNE,28,10.0,13.0,90,0.00,,,0.00,Wunderground v.1.15,2013-10-10 19:20:00,
2013-10-10 15:30:00,60.8,57.8,29.88,NNW,336,10.0,10.0,90,0.00,,,0.00,Wunderground v.1.15,2013-10-10 19:30:00,
2013-10-10 15:35:00,60.8,57.8,29.88,North,352,9.0,10.0,90,0.00,,,0.00,Wunderground v.1.15,2013-10-10 19:35:00,
2013-10-10 15:40:00,60.7,57.7,29.89,NNW,346,10.0,16.0,90,0.00,,,0.00,Wunderground v.1.15,2013-10-10 19:40:00,
2013-10-10 15:45:00,60.6,57.7,29.89,NW,325,10.0,16.0,90,0.00,,,0.00,Wunderground v.1.15,2013-10-10 19:45:00,
2013-10-10 15:50:00,60.5,57.6,29.89,North,359,11.0,13.0,90,0.00,,,0.00,Wunderground v.1.15,2013-10-10 19:50:00,
2013-10-10 15:55:00,60.6,57.7,29.89,NNW,340,10.0,13.0,90,0.00,,,0.00,Wunderground v.1.15,2013-10-10 19:55:00,
2013-10-10 16:00:00,60.5,57.6,29.88,North,359,9.0,9.0,90,0.00,,,0.00,Wunderground v.1.15,2013-10-10 20:00:00,
2013-10-10 16:10:00,60.6,57.7,29.89,NNW,335,8.0,8.0,90,0.00,,,0.00,Wunderground v.1.15,2013-10-10 20:10:00,
2013-10-10 16:15:00,60.4,57.5,29.89,North,354,9.0,9.0,90,0.00,,,0.00,Wunderground v.1.15,2013-10-10 20:15:00,
2013-10-10 16:20:00,60.4,57.5,29.89,North,5,10.0,13.0,90,0.00,,,0.00,Wunderground v.1.15,2013-10-10 20:20:00,
2013-10-10 16:25:00,60.5,57.6,29.89,NW,312,9.0,13.0,90,0.00,,,0.00,Wunderground v.1.15,2013-10-10 20:25:00,
2013-10-10 16:35:00,60.4,57.5,29.89,NNE,23,7.0,8.0,90,0.00,,,0.00,Wunderground v.1.15,2013-10-10 20:35:00,
2013-10-10 16:40:00,60.4,57.8,29.89,NNW,331,7.0,7.0,91,0.00,,,0.00,Wunderground v.1.15,2013-10-10 20:40:00,
2013-10-10 16:45:00,60.2,57.3,29.89,NNW,347,6.0,10.0,90,0.00,,,0.00,Wunderground v.1.15,2013-10-10 20:45:00,
2013-10-10 16:50:00,60.2,57.3,29.90,NNW,344,8.0,9.0,90,0.00,,,0.00,Wunderground v.1.15,2013-10-10 20:50:00,
2013-10-10 16:55:00,60.1,57.2,29.90,North,350,9.0,9.0,90,0.00,,,0.00,Wunderground v.1.15,2013-10-10 20:55:00,
2013-10-10 17:00:00,60.1,57.2,29.90,NNW,340,9.0,9.0,90,0.00,,,0.00,Wunderground v.1.15,2013-10-10 21:00:00,
2013-10-10 17:10:00,59.9,57.3,29.90,North,1,6.0,12.0,91,0.00,,,0.00,Wunderground v.1.15,2013-10-10 21:10:00,
2013-10-10 17:15:00,59.7,57.1,29.90,North,354,7.0,12.0,91,0.00,,,0.00,Wunderground v.1.15,2013-10-10 21:15:00,
2013-10-10 17:20:00,59.7,57.1,29.89,NNE,30,8.0,8.0,91,0.00,,,0.00,Wunderground v.1.15,2013-10-10 21:20:00,
2013-10-10 17:25:00,59.6,57.0,29.89,NNW,333,8.0,8.0,91,0.00,,,0.00,Wunderground v.1.15,2013-10-10 21:25:00,
2013-10-10 17:30:00,59.5,56.9,29.89,NNW,336,8.0,11.0,91,0.00,,,0.00,Wunderground v.1.15,2013-10-10 21:30:00,
2013-10-10 17:35:00,59.6,57.0,29.89,NW,304,8.0,11.0,91,0.00,,,0.00,Wunderground v.1.15,2013-10-10 21:35:00,
2013-10-10 17:40:00,59.7,57.1,29.89,NNW,335,8.0,10.0,91,0.00,,,0.00,Wunderground v.1.15,2013-10-10 21:40:00,
2013-10-10 17:45:00,59.7,57.1,29.89,NE,40,9.0,10.0,91,0.00,,,0.00,Wunderground v.1.15,2013-10-10 21:45:00,
2013-10-10 17:50:00,59.8,57.2,29.89,NNW,340,8.0,10.0,91,0.00,,,0.00,Wunderground v.1.15,2013-10-10 21:50:00,
2013-10-10 17:55:00,59.8,57.2,29.89,NW,311,7.0,10.0,91,0.00,,,0.00,Wunderground v.1.15,2013-10-10 21:55:00,
2013-10-10 18:00:00,59.7,57.1,29.89,WNW,297,7.0,7.0,91,0.00,,,0.00,Wunderground v.1.15,2013-10-10 22:00:00,
2013-10-10 18:10:00,59.6,57.0,29.89,ENE,57,7.0,7.0,91,0.00,,,0.00,Wunderground v.1.15,2013-10-10 22:10:00,
2013-10-10 18:15:00,59.6,57.0,29.89,NNW,347,7.0,10.0,91,0.00,,,0.00,Wunderground v.1.15,2013-10-10 22:15:00,
2013-10-10 18:20:00,59.6,57.0,29.89,NNW,342,8.0,12.0,91,0.00,,,0.00,Wunderground v.1.15,2013-10-10 22:20:00,
2013-10-10 18:25:00,59.6,57.0,29.90,NNW,333,8.0,12.0,91,0.00,,,0.00,Wunderground v.1.15,2013-10-10 22:25:00,
2013-10-10 18:30:00,59.6,57.0,29.89,WNW,294,7.0,7.0,91,0.00,,,0.00,Wunderground v.1.15,2013-10-10 22:30:00,
2013-10-10 18:35:00,59.6,57.0,29.89,NNW,337,7.0,7.0,91,0.00,,,0.00,Wunderground v.1.15,2013-10-10 22:35:00,
2013-10-10 18:40:00,59.6,57.0,29.89,NNW,327,7.0,7.0,91,0.00,,,0.00,Wunderground v.1.15,2013-10-10 22:40:00,
2013-10-10 18:45:00,59.6,57.0,29.90,NNW,345,7.0,10.0,91,0.00,,,0.00,Wunderground v.1.15,2013-10-10 22:45:00,
2013-10-10 18:50:00,59.6,57.0,29.90,North,4,7.0,7.0,91,0.00,,,0.00,Wunderground v.1.15,2013-10-10 22:50:00,
2013-10-10 18:55:00,59.6,57.0,29.90,NW,318,7.0,8.0,91,0.00,,,0.00,Wunderground v.1.15,2013-10-10 22:55:00,
2013-10-10 19:00:00,59.6,57.0,29.90,NW,323,6.0,8.0,91,0.00,,,0.00,Wunderground v.1.15,2013-10-10 23:00:00,
2013-10-10 19:10:00,59.6,57.0,29.90,ENE,68,5.0,9.0,91,0.00,,,0.00,Wunderground v.1.15,2013-10-10 23:10:00,
2013-10-10 19:15:00,59.6,57.0,29.90,NW,312,5.0,9.0,91,0.00,,,0.00,Wunderground v.1.15,2013-10-10 23:15:00,
2013-10-10 19:20:00,59.6,57.0,29.90,NE,36,4.0,7.0,91,0.00,,,0.00,Wunderground v.1.15,2013-10-10 23:20:00,
2013-10-10 19:25:00,59.6,57.0,29.90,North,9,4.0,7.0,91,0.00,,,0.00,Wunderground v.1.15,2013-10-10 23:25:00,
2013-10-10 19:30:00,59.7,57.1,29.90,NNW,344,6.0,11.0,91,0.00,,,0.00,Wunderground v.1.15,2013-10-10 23:30:00,
2013-10-10 19:35:00,59.7,57.1,29.90,North,11,6.0,11.0,91,0.00,,,0.00,Wunderground v.1.15,2013-10-10 23:35:00,
2013-10-10 19:40:00,59.7,57.1,29.90,North,351,6.0,6.0,91,0.00,,,0.00,Wunderground v.1.15,2013-10-10 23:40:00,
2013-10-10 19:45:00,59.7,57.1,29.90,NW,308,6.0,6.0,91,0.00,,,0.00,Wunderground v.1.15,2013-10-10 23:45:00,
2013-10-10 19:50:00,59.8,57.2,29.90,WNW,294,5.0,5.0,91,0.00,,,0.00,Wunderground v.1.15,2013-10-10 23:50:00,
2013-10-10 19:55:00,59.8,57.2,29.90,NW,326,4.0,5.0,91,0.00,,,0.00,Wunderground v.1.15,2013-10-10 23:55:00,
2013-10-10 20:00:00,59.8,57.2,29.90,North,356,4.0,5.0,91,0.00,,,0.00,Wunderground v.1.15,2013-10-11 00:00:00,
2013-10-10 20:10:00,59.9,57.3,29.91,NNW,337,5.0,7.0,91,0.00,,,0.00,Wunderground v.1.15,2013-10-11 00:10:00,
2013-10-10 20:15:00,59.9,57.3,29.90,NW,322,5.0,7.0,91,0.00,,,0.00,Wunderground v.1.15,2013-10-11 00:15:00,
2013-10-10 20:20:00,59.9,57.3,29.90,NNE,25,5.0,5.0,91,0.00,,,0.00,Wunderground v.1.15,2013-10-11 00:20:00,
2013-10-10 20:25:00,59.9,57.3,29.90,NNE,15,5.0,5.0,91,0.00,,,0.00,Wunderground v.1.15,2013-10-11 00:25:00,
2013-10-10 20:30:00,59.9,57.3,29.90,NNW,344,6.0,6.0,91,0.00,,,0.00,Wunderground v.1.15,2013-10-11 00:30:00,
2013-10-10 20:35:00,59.9,57.3,29.90,NW,315,5.0,6.0,91,0.00,,,0.00,Wunderground v.1.15,2013-10-11 00:35:00,
2013-10-10 20:45:00,59.9,57.3,29.90,NNW,333,5.0,5.0,91,0.00,,,0.00,Wunderground v.1.15,2013-10-11 00:45:00,
2013-10-10 20:50:00,59.9,57.3,29.90,North,9,5.0,7.0,91,0.00,,,0.00,Wunderground v.1.15,2013-10-11 00:50:00,
2013-10-10 20:55:00,59.9,57.3,29.90,NNE,33,5.0,7.0,91,0.00,,,0.00,Wunderground v.1.15,2013-10-11 00:55:00,
2013-10-10 21:00:00,59.9,57.3,29.90,NNW,347,5.0,10.0,91,0.00,,,0.00,Wunderground v.1.15,2013-10-11 01:00:00,
2013-10-10 21:10:00,59.9,57.3,29.90,North,351,5.0,5.0,91,0.00,,,0.00,Wunderground v.1.15,2013-10-11 01:10:00,
2013-10-10 21:20:00,59.8,57.5,29.91,North,354,4.0,4.0,92,0.00,,,0.00,Wunderground v.1.15,2013-10-11 01:20:00,
2013-10-10 21:30:00,59.8,57.5,29.90,North,349,5.0,5.0,92,0.00,,,0.00,Wunderground v.1.15,2013-10-11 01:30:00,
2013-10-10 21:35:00,59.9,57.6,29.90,NNE,19,5.0,5.0,92,0.00,,,0.00,Wunderground v.1.15,2013-10-11 01:35:00,
2013-10-10 21:45:00,59.8,57.5,29.90,NW,309,5.0,6.0,92,0.00,,,0.00,Wunderground v.1.15,2013-10-11 01:45:00,
2013-10-10 21:50:00,59.8,57.5,29.90,North,354,5.0,5.0,92,0.00,,,0.00,Wunderground v.1.15,2013-10-11 01:50:00,
2013-10-10 21:55:00,59.8,57.5,29.90,NNW,342,5.0,5.0,92,0.00,,,0.00,Wunderground v.1.15,2013-10-11 01:55:00,
2013-10-10 22:00:00,59.8,57.5,29.90,NNW,333,4.0,5.0,92,0.00,,,0.00,Wunderground v.1.15,2013-10-11 02:00:00,
2013-10-10 22:10:00,59.8,57.5,29.90,NNW,346,5.0,5.0,92,0.00,,,0.00,Wunderground v.1.15,2013-10-11 02:10:00,
2013-10-10 22:20:00,59.9,57.6,29.90,North,351,6.0,6.0,92,0.00,,,0.00,Wunderground v.1.15,2013-10-11 02:20:00,
2013-10-10 22:30:00,59.9,57.6,29.90,North,350,6.0,8.0,92,0.00,,,0.00,Wunderground v.1.15,2013-10-11 02:30:00,
2013-10-10 22:35:00,60.0,57.7,29.90,North,8,6.0,8.0,92,0.00,,,0.00,Wunderground v.1.15,2013-10-11 02:35:00,
2013-10-10 22:40:00,60.0,57.7,29.90,NNW,328,6.0,11.0,92,0.00,,,0.00,Wunderground v.1.15,2013-10-11 02:40:00,
2013-10-10 22:45:00,60.0,57.7,29.90,NNW,335,6.0,11.0,92,0.00,,,0.00,Wunderground v.1.15,2013-10-11 02:45:00,
2013-10-10 22:50:00,60.0,57.7,29.90,North,349,6.0,6.0,92,0.00,,,0.00,Wunderground v.1.15,2013-10-11 02:50:00,
2013-10-10 22:55:00,60.0,57.7,29.90,North,354,6.0,6.0,92,0.00,,,0.00,Wunderground v.1.15,2013-10-11 02:55:00,
2013-10-10 23:00:00,60.1,57.8,29.90,NW,315,6.0,6.0,92,0.00,,,0.00,Wunderground v.1.15,2013-10-11 03:00:00,
2013-10-10 23:10:00,60.1,57.8,29.89,NNW,335,6.0,6.0,92,0.00,,,0.00,Wunderground v.1.15,2013-10-11 03:10:00,
2013-10-10 23:20:00,60.2,57.9,29.89,NNE,32,5.0,6.0,92,0.00,,,0.00,Wunderground v.1.15,2013-10-11 03:20:00,
2013-10-10 23:30:00,60.2,57.9,29.89,NNW,330,5.0,5.0,92,0.00,,,0.00,Wunderground v.1.15,2013-10-11 03:30:00,
2013-10-10 23:35:00,60.2,57.9,29.89,North,9,5.0,5.0,92,0.00,,,0.00,Wunderground v.1.15,2013-10-11 03:35:00,
2013-10-10 23:40:00,60.2,57.9,29.89,NNW,339,5.0,5.0,92,0.00,,,0.00,Wunderground v.1.15,2013-10-11 03:40:00,
2013-10-10 23:45:00,60.2,57.9,29.89,NNW,333,5.0,6.0,92,0.00,,,0.00,Wunderground v.1.15,2013-10-11 03:45:00,
2013-10-10 23:50:00,60.2,57.9,29.89,North,350,5.0,5.0,92,0.00,,,0.00,Wunderground v.1.15,2013-10-11 03:50:00,
2013-10-10 23:55:00,60.3,58.0,29.89,NNE,25,5.0,5.0,92,0.00,,,0.00,Wunderground v.1.15,2013-10-11 03:55:00,